Location: Innsbruck
(47.2657°N, 11.3914°E)
Time: 19:14:02
(UTC+01:00)

BEESAT 3 - Pass Details

Date: 15 December 2021
Orbit: 472 x 512 km, 64.9° (Epoch: 22 January)

Event Time Altitude Azimuth Distance (km) Brightness Sun altitude
Rises 16:57:23 0° 223° (SW) 2,551 ? -5.6°
Reaches altitude 10° 16:59:32 10° 227° (SW) 1,681 ? -5.9°
Maximum altitude 17:03:15 64° 310° (NW) 554 ? -6.4°
Drops below altitude 10° 17:07:04 10° 32° (NNE) 1,719 ? -7.0°
Enters shadow 17:07:52 - 34° (NE) 2,040 ? -7.1°
